When you browse on this site, cookies collect data to enhance your experience and personalize the content and advertising you see.
Visit our Privacy Policy to learn more. By continuing to use the site, you agree to this use of cookies and data.
  • In Netherlands
  • List of Countries
  • For 7 days
  • Water Temperature
  • Satellite Maps
  • Weather Map
  • Weather Widgets
  • user-avatar
    Login

    Hourly Weather Melbourne

    Today, 24 June, Monday

    Time Temperature Precipitation Wind Pressure Humidity
    00:00 +6°C° 0 mm 1 mps 773 mmHg 87%
    01:00 +6°C° 0 mm 1 mps 772 mmHg 87%
    02:00 +6°C° 0 mm 1 mps 773 mmHg 87%
    03:00 +6°C° 0 mm 1 mps 773 mmHg 87%
    04:00 +5°C° 0 mm 1 mps 773 mmHg 86%
    05:00 +5°C° 0 mm 1 mps 773 mmHg 84%
    06:00 +5°C° 0 mm 1 mps 773 mmHg 83%
    07:00 +5°C° 0 mm 1 mps 773 mmHg 82%
    08:00 +6°C° 0 mm 1 mps 773 mmHg 74%
    09:00 +8°C° 0 mm 1 mps 774 mmHg 67%
    10:00 +10°C° 0 mm 1 mps 774 mmHg 55%
    11:00 +11°C° 0 mm 1 mps 773 mmHg 50%
    12:00 +13°C° 0 mm 1 mps 772 mmHg 45%
    13:00 +14°C° 0 mm 0 mps 772 mmHg 40%
    14:00 +15°C° 0 mm 1 mps 772 mmHg 42%
    15:00 +14°C° 0 mm 1 mps 772 mmHg 45%
    16:00 +14°C° 0 mm 2 mps 772 mmHg 46%
    17:00 +12°C° 0 mm 2 mps 772 mmHg 51%
    18:00 +11°C° 0 mm 1 mps 772 mmHg 56%
    19:00 +10°C° 0 mm 1 mps 772 mmHg 61%
    20:00 +9°C° 0 mm 1 mps 773 mmHg 62%
    21:00 +9°C° 0 mm 1 mps 773 mmHg 64%
    22:00 +7°C° 0 mm 2 mps 774 mmHg 65%
    23:00 +7°C° 0 mm 2 mps 773 mmHg 64%

    Tomorrow, 25 June, Tuesday

    Time Temperature Precipitation Wind Pressure Humidity
    00:00 +7°C° 0 mm 2 mps 773 mmHg 63%
    01:00 +6°C° 0 mm 2 mps 773 mmHg 62%
    02:00 +6°C° 0 mm 2 mps 773 mmHg 62%
    03:00 +6°C° 0 mm 2 mps 773 mmHg 61%
    04:00 +6°C° 0 mm 2 mps 773 mmHg 60%
    05:00 +6°C° 0 mm 2 mps 773 mmHg 60%
    06:00 +6°C° 0 mm 2 mps 774 mmHg 60%
    07:00 +6°C° 0 mm 2 mps 774 mmHg 59%
    08:00 +7°C° 0 mm 2 mps 774 mmHg 58%
    09:00 +8°C° 0 mm 2 mps 774 mmHg 56%
    10:00 +10°C° 0 mm 2 mps 774 mmHg 54%
    11:00 +12°C° 0 mm 2 mps 774 mmHg 53%
    12:00 +14°C° 0 mm 2 mps 774 mmHg 52%
    13:00 +16°C° 0 mm 2 mps 773 mmHg 51%
    14:00 +15°C° 0 mm 2 mps 773 mmHg 54%
    15:00 +15°C° 0 mm 2 mps 773 mmHg 57%
    16:00 +15°C° 0 mm 2 mps 773 mmHg 60%
    17:00 +13°C° 0 mm 2 mps 773 mmHg 65%
    18:00 +12°C° 0 mm 2 mps 773 mmHg 71%
    19:00 +10°C° 0 mm 2 mps 774 mmHg 76%
    20:00 +9°C° 0 mm 2 mps 774 mmHg 77%
    21:00 +9°C° 0 mm 2 mps 774 mmHg 78%
    22:00 +8°C° 0 mm 2 mps 775 mmHg 79%
    23:00 +8°C° 0 mm 2 mps 774 mmHg 80%

    Day after tomorrow, 26 June, Wednesday

    Time Temperature Precipitation Wind Pressure Humidity
    00:00 +9°C° 0 mm 1 mps 774 mmHg 80%
    01:00 +9°C° 0 mm 1 mps 774 mmHg 80%
    02:00 +8°C° 0 mm 1 mps 774 mmHg 80%
    03:00 +8°C° 0 mm 1 mps 774 mmHg 80%
    04:00 +8°C° 0 mm 1 mps 774 mmHg 80%
    05:00 +8°C° 0 mm 1 mps 775 mmHg 80%
    06:00 +7°C° 0 mm 2 mps 775 mmHg 79%
    07:00 +7°C° 0 mm 2 mps 775 mmHg 78%
    08:00 +8°C° 0 mm 2 mps 775 mmHg 72%
    09:00 +10°C° 0 mm 2 mps 775 mmHg 66%
    10:00 +12°C° 0 mm 2 mps 775 mmHg 60%
    11:00 +14°C° 0 mm 2 mps 775 mmHg 55%
    12:00 +15°C° 0 mm 2 mps 774 mmHg 50%
    13:00 +17°C° 0 mm 2 mps 774 mmHg 45%
    14:00 +17°C° 0 mm 2 mps 773 mmHg 49%
    15:00 +16°C° 0 mm 2 mps 773 mmHg 52%
    16:00 +16°C° 0 mm 2 mps 773 mmHg 56%
    17:00 +14°C° 0 mm 2 mps 773 mmHg 62%
    18:00 +13°C° 0 mm 2 mps 773 mmHg 69%
    19:00 +10°C° 0 mm 2 mps 774 mmHg 75%
    20:00 +10°C° 0 mm 2 mps 774 mmHg 76%
    21:00 +9°C° 0 mm 3 mps 774 mmHg 77%
    22:00 +9°C° 0 mm 3 mps 774 mmHg 79%
    23:00 +9°C° 0 mm 3 mps 773 mmHg 78%

    27 June, Thursday

    Time Temperature Precipitation Wind Pressure Humidity
    00:00 +9°C° 0 mm 3 mps 773 mmHg 78%
    01:00 +8°C° 0 mm 3 mps 773 mmHg 78%
    02:00 +8°C° 0 mm 3 mps 773 mmHg 78%
    03:00 +8°C° 0 mm 3 mps 773 mmHg 78%
    04:00 +8°C° 0 mm 3 mps 773 mmHg 78%
    05:00 +7°C° 0 mm 4 mps 773 mmHg 78%
    06:00 +7°C° 0 mm 4 mps 773 mmHg 79%
    07:00 +7°C° 0 mm 4 mps 773 mmHg 79%
    08:00 +8°C° 0 mm 4 mps 773 mmHg 75%
    09:00 +10°C° 0 mm 5 mps 773 mmHg 70%
    10:00 +12°C° 0 mm 5 mps 773 mmHg 66%
    11:00 +13°C° 0 mm 5 mps 773 mmHg 65%
    12:00 +14°C° 0 mm 5 mps 772 mmHg 63%
    13:00 +15°C° 0 mm 5 mps 771 mmHg 61%
    14:00 +15°C° 0 mm 5 mps 771 mmHg 62%
    15:00 +15°C° 0 mm 5 mps 771 mmHg 63%
    16:00 +15°C° 0 mm 4 mps 770 mmHg 64%
    17:00 +14°C° 0 mm 4 mps 770 mmHg 69%
    18:00 +13°C° 0 mm 4 mps 771 mmHg 73%
    19:00 +12°C° 0 mm 4 mps 771 mmHg 77%
    20:00 +11°C° 0 mm 4 mps 771 mmHg 77%
    21:00 +11°C° 0 mm 4 mps 771 mmHg 77%
    22:00 +10°C° 0 mm 5 mps 771 mmHg 77%
    23:00 +10°C° 0 mm 5 mps 771 mmHg 75%

    28 June, Friday

    Time Temperature Precipitation Wind Pressure Humidity
    00:00 +10°C° 0 mm 5 mps 771 mmHg 74%
    01:00 +10°C° 0 mm 5 mps 771 mmHg 73%
    02:00 +10°C° 0 mm 6 mps 771 mmHg 72%
    03:00 +10°C° 0 mm 6 mps 770 mmHg 72%
    04:00 +10°C° 0 mm 6 mps 770 mmHg 71%
    05:00 +10°C° 0 mm 6 mps 770 mmHg 70%
    06:00 +10°C° 0 mm 6 mps 770 mmHg 70%
    07:00 +9°C° 0 mm 6 mps 770 mmHg 69%
    08:00 +10°C° 0 mm 6 mps 770 mmHg 66%
    09:00 +11°C° 0 mm 6 mps 770 mmHg 63%
    10:00 +12°C° 0 mm 7 mps 770 mmHg 60%
    11:00 +14°C° 0 mm 6 mps 770 mmHg 57%
    12:00 +15°C° 0 mm 6 mps 769 mmHg 55%
    13:00 +16°C° 0 mm 6 mps 769 mmHg 52%
    14:00 +16°C° 0 mm 6 mps 768 mmHg 54%
    15:00 +16°C° 0 mm 5 mps 768 mmHg 56%
    16:00 +15°C° 0 mm 5 mps 767 mmHg 58%
    17:00 +14°C° 0 mm 5 mps 767 mmHg 61%
    18:00 +13°C° 0 mm 5 mps 768 mmHg 65%
    19:00 +12°C° 0 mm 5 mps 768 mmHg 69%
    20:00 +12°C° 0 mm 5 mps 768 mmHg 69%
    21:00 +12°C° 0 mm 5 mps 767 mmHg 69%
    22:00 +12°C° 0 mm 5 mps 767 mmHg 69%
    23:00 +12°C° 0 mm 5 mps 767 mmHg 69%

    29 June, Saturday

    Time Temperature Precipitation Wind Pressure Humidity
    00:00 +11°C° 0 mm 6 mps 766 mmHg 69%
    01:00 +11°C° 0 mm 6 mps 766 mmHg 70%
    02:00 +11°C° 0 mm 6 mps 765 mmHg 70%
    03:00 +11°C° 0 mm 7 mps 764 mmHg 70%
    04:00 +12°C° 0 mm 7 mps 764 mmHg 71%
    05:00 +12°C° 0.1 mm 7 mps 764 mmHg 71%
    06:00 +11°C° 0.1 mm 7 mps 763 mmHg 72%
    07:00 +11°C° 0.1 mm 7 mps 763 mmHg 73%
    08:00 +12°C° 0.1 mm 8 mps 763 mmHg 72%
    09:00 +12°C° 0.1 mm 8 mps 762 mmHg 71%
    10:00 +12°C° 0.1 mm 8 mps 762 mmHg 70%
    11:00 +12°C° 0.2 mm 9 mps 761 mmHg 71%
    12:00 +12°C° 0.2 mm 9 mps 760 mmHg 72%
    13:00 +12°C° 0.2 mm 9 mps 759 mmHg 74%
    14:00 +12°C° 0.6 mm 9 mps 758 mmHg 76%
    15:00 +12°C° 0.6 mm 8 mps 757 mmHg 78%
    16:00 +12°C° 0.6 mm 8 mps 756 mmHg 80%
    17:00 +12°C° 2.8 mm 7 mps 756 mmHg 83%
    18:00 +12°C° 2.8 mm 7 mps 756 mmHg 86%
    19:00 +13°C° 2.8 mm 6 mps 756 mmHg 88%
    20:00 +12°C° 3.8 mm 5 mps 756 mmHg 88%
    21:00 +10°C° 3.8 mm 4 mps 756 mmHg 87%
    22:00 +9°C° 3.8 mm 3 mps 756 mmHg 87%
    23:00 +8°C° 0.6 mm 4 mps 756 mmHg 86%
    Show more